Theta_e
324 326 329 330 330 330 329 329 328 327 327 326 326 325 323 324 327 329 329 328 328 327 327 326 326 326 325 322 323 323 323 323 321 322 320 318 317 316 315 314 313 312 308
320 325 327 328 329 330 330 329 328 327 327 327 327 327 325 323 324 327 327 327 327 327 326 326 326 325 323 324 325 324 323 321 321 322 320 319 317 314 313 312 311 309 307
318 320 323 325 327 328 329 329 329 327 327 327 327 327 325 324 322 324 325 326 326 326 326 326 325 324 324 325 324 323 320 321 318 319 318 317 314 312 311 310 308 307 307
316 317 318 321 325 326 327 328 329 328 327 327 327 327 326 325 325 325 326 326 327 327 327 326 325 325 325 324 321 320 320 317 319 318 317 314 312 311 309 307 307 307 306
315 316 316 317 318 322 325 327 327 328 328 327 327 327 326 326 326 326 326 327 327 327 327 325 325 324 322 321 319 320 317 317 316 316 315 315 312 309 306 305 305 305 305
315 315 314 316 317 318 320 323 325 327 327 327 327 326 326 326 326 326 326 327 327 327 326 325 324 322 321 320 318 317 317 314 316 315 313 309 307 306 304 303 302 303 304
316 316 315 313 312 314 316 319 321 324 326 327 326 326 326 326 325 325 326 326 327 326 325 324 323 321 318 317 316 315 314 314 313 309 307 307 307 305 305 304 303 303 303
315 315 315 314 313 311 314 316 319 321 323 324 325 326 326 323 323 325 326 326 325 324 323 321 320 318 317 317 315 315 312 309 307 307 307 308 306 306 304 303 302 301 300
315 315 315 315 314 311 311 313 316 318 320 322 322 322 322 323 324 325 325 324 323 322 321 319 317 317 317 315 312 310 308 306 307 307 307 307 307 306 302 300 299 299 299
315 315 315 314 314 311 310 312 315 317 319 321 321 322 322 323 324 323 323 322 321 321 319 318 316 315 313 310 309 307 306 307 307 307 307 306 303 301 299 298 298 298 298
315 314 315 314 314 314 312 310 313 316 318 320 321 321 321 322 322 321 320 320 320 319 316 314 312 310 309 307 306 306 306 307 307 305 303 301 299 297 297 297 297 296 296
312 312 314 314 314 313 311 309 310 315 318 318 321 321 320 319 318 319 318 317 315 312 310 309 309 307 306 306 306 305 306 306 305 303 300 299 297 296 295 295 295 296 296
311 312 313 314 313 313 310 308 308 312 316 317 319 318 319 318 317 317 315 309 308 308 308 306 306 305 305 305 305 305 305 304 302 302 300 298 296 294 295 295 295 294 293
307 310 311 310 310 309 309 308 307 310 315 316 318 318 318 317 314 309 307 308 308 307 305 304 305 305 305 305 304 303 302 301 301 299 298 296 295 293 292 290 289 288 288
305 306 306 306 305 306 305 306 306 307 310 312 313 313 311 309 307 307 307 307 307 305 304 303 302 302 302 302 301 300 300 299 298 296 295 292 290 288 287 287 286 286 286
301 302 302 301 301 303 304 304 304 305 307 307 307 307 307 307 307 307 306 305 304 303 302 301 301 300 300 299 299 298 297 296 294 291 288 287 287 286 286 285 285 285 284
295 298 298 298 299 300 301 302 303 303 305 305 306 306 306 306 306 306 305 303 302 302 301 300 299 299 298 298 297 296 295 290 288 287 287 286 286 285 285 285 284 284 284
291 294 295 295 296 297 298 299 301 302 303 304 304 305 305 304 303 303 302 303 299 299 299 300 299 297 296 295 294 291 288 287 287 286 286 286 285 285 285 285 284 284 283
289 291 293 294 294 294 295 295 297 299 300 301 302 300 301 301 301 299 300 300 300 297 295 296 297 296 294 291 288 287 287 286 286 286 285 285 285 285 284 284 283 283 283
288 289 291 292 292 292 292 293 294 295 296 298 299 299 299 298 296 297 297 298 299 298 297 296 296 294 291 288 287 286 286 286 285 285 285 285 284 284 284 283 283 283 282
285 286 288 289 289 290 291 292 293 293 294 295 295 296 296 296 295 296 296 296 297 296 295 295 293 290 287 286 286 286 285 285 285 288 285 284 284 283 283 282 282 281 281
283 284 284 285 285 286 288 290 291 292 292 293 293 293 292 293 293 292 292 293 293 293 294 292 288 286 286 285 285 285 285 287 288 285 284 283 283 282 282 282 281 281 280
281 281 281 282 282 283 283 285 285 286 288 289 289 289 290 290 290 291 291 291 291 290 289 288 286 285 284 284 284 286 288 288 284 283 283 282 282 281 281 280 280 280 280
279 279 279 279 279 280 280 281 282 283 283 284 284 285 286 286 287 287 288 288 288 288 286 285 284 284 284 283 286 288 286 284 283 282 282 281 281 280 280 279 279 279 279
278 278 277 278 278 278 279 279 279 279 279 280 281 282 282 283 284 285 285 286 287 286 283 283 283 282 283 286 287 287 285 282 282 283 281 280 280 279 279 279 278 278 277
274 276 277 276 277 277 277 277 278 278 279 279 279 279 279 280 281 281 281 281 281 281 281 281 282 285 287 287 287 285 282 283 284 281 280 279 279 279 278 278 277 277 277
Wind_Speed
44 46 49 53 55 55 55 57 57 55 53 51 49 47 44 42 41 40 42 43 44 42 41 41 39 37 35 33 30 28 27 28 30 31 31 27 27 27 29 28 29 27 26
36 44 45 47 50 52 55 57 56 54 53 52 51 49 46 43 41 41 42 42 42 42 41 39 38 35 33 31 28 28 28 28 26 32 34 32 30 30 29 32 30 26 25
34 37 40 41 46 51 53 54 53 52 51 51 52 51 49 46 43 42 41 41 42 40 39 38 35 34 31 29 28 30 29 29 33 28 30 31 30 31 31 31 26 23 20
25 32 37 40 43 48 49 50 51 51 50 50 51 51 49 47 44 41 40 41 41 40 37 35 33 31 29 29 29 32 30 32 31 31 32 30 31 32 32 26 22 19 17
29 28 33 34 36 41 45 46 47 48 50 49 49 49 48 47 45 42 40 40 40 39 36 33 31 30 30 32 31 31 31 31 31 31 32 34 33 30 23 20 19 17 15
30 30 30 35 36 37 39 42 45 47 48 47 48 47 47 47 44 41 39 39 39 38 37 33 33 34 33 32 31 31 31 30 30 33 33 31 24 19 17 17 17 16 15
35 32 30 32 36 38 38 40 42 45 47 48 48 47 47 45 42 39 39 40 39 38 36 35 36 35 33 31 31 30 29 32 30 27 25 20 19 19 18 17 17 15 15
39 37 34 35 36 37 39 40 42 43 46 47 48 47 47 45 40 39 39 38 38 37 36 36 35 34 33 31 30 31 29 27 24 24 22 21 21 19 18 16 15 11 9
43 41 39 38 38 37 39 41 41 42 43 45 46 46 44 42 40 39 38 38 38 38 37 37 35 34 34 35 31 27 26 25 24 23 21 20 19 17 15 14 12 10 8
42 39 37 35 37 36 37 38 40 41 42 42 42 43 42 41 40 39 39 39 39 40 39 37 37 36 34 30 28 27 26 25 22 19 19 18 16 14 12 12 13 12 8
41 38 39 37 36 37 36 37 37 38 40 42 43 43 41 39 37 38 38 38 39 39 39 38 36 32 29 28 26 26 23 20 19 18 17 15 14 13 12 13 13 9 8
38 40 37 35 35 39 39 38 38 39 39 40 40 40 39 38 37 38 38 38 38 36 35 32 29 28 27 27 26 24 23 21 19 17 16 15 13 14 14 14 12 9 8
39 37 34 33 35 36 38 39 40 41 41 41 42 42 42 41 40 41 41 38 35 33 30 28 28 28 28 28 26 25 23 21 19 18 17 15 15 14 12 11 10 9 8
32 32 32 32 35 37 37 38 40 42 44 44 45 46 45 44 44 42 39 36 33 31 30 32 32 31 29 27 27 25 22 19 17 17 16 14 14 12 10 9 8 7 7
29 28 27 30 32 34 37 39 41 43 44 46 47 48 48 46 44 40 37 35 34 32 34 33 33 33 31 30 27 24 21 20 19 17 16 14 12 11 9 8 7 7 7
27 25 25 25 29 32 35 40 41 43 43 44 44 43 41 37 35 33 33 33 31 33 35 36 36 33 31 30 27 25 23 21 19 17 14 12 11 9 8 8 8 7 6
25 22 22 22 24 28 31 35 39 40 40 39 38 37 32 31 31 31 30 31 31 34 36 36 35 32 31 29 27 26 24 21 17 16 13 11 10 9 8 8 8 7 6
22 19 18 18 20 23 27 31 34 37 38 37 35 35 35 34 32 30 33 31 34 36 38 38 36 32 30 29 28 26 22 20 18 15 12 11 11 9 9 10 9 8 6
19 19 18 17 17 19 24 28 29 32 34 36 35 33 30 28 28 30 33 38 43 42 40 37 34 32 31 27 26 24 21 18 16 14 13 13 11 11 10 10 10 9 8
15 16 16 17 17 17 20 24 24 27 31 33 33 33 29 27 32 35 38 41 40 41 41 38 34 30 29 28 26 24 21 18 17 16 13 15 14 12 11 11 10 9 9
23 21 17 14 15 18 17 17 19 23 26 27 29 29 29 32 37 39 42 42 42 46 42 34 31 28 27 26 25 22 19 16 15 15 20 17 15 14 13 13 12 11 10
27 25 22 17 13 13 12 13 15 16 20 23 25 24 28 34 37 39 43 43 41 35 30 29 28 27 26 24 21 18 16 13 17 22 19 17 16 16 16 14 13 12 12
30 27 25 21 16 13 10 8 7 9 13 16 19 24 26 30 32 32 33 33 31 28 27 27 26 26 24 22 19 15 13 17 22 21 19 18 18 18 17 15 14 14 13
27 26 24 24 23 21 18 13 9 7 7 8 13 17 19 22 22 23 26 26 25 25 25 23 23 21 20 19 15 15 17 23 22 20 19 20 20 20 18 18 16 15 15
25 24 24 23 22 21 19 18 17 14 9 4 2 7 10 12 14 17 20 20 21 22 21 21 21 20 19 19 19 20 23 24 20 21 23 23 22 21 20 20 18 17 16
26 24 23 23 22 20 18 17 16 13 12 10 8 6 4 5 9 12 14 16 18 19 20 21 22 22 25 25 25 25 26 28 27 25 25 24 24 23 22 21 20 19 18
Wind_Direction
247 244 238 239 242 244 245 245 245 243 243 243 247 249 249 248 245 243 245 247 249 249 250 252 254 255 256 255 253 252 255 260 263 268 275 282 285 295 289 288 290 294 294
247 247 244 240 241 243 245 247 246 245 242 244 246 245 248 248 246 244 243 243 242 244 250 251 253 252 251 251 247 251 254 263 263 270 277 280 281 288 288 287 292 292 292
256 250 250 248 245 245 246 247 246 244 244 242 242 243 244 245 246 243 242 240 242 247 250 250 251 249 247 246 248 253 260 258 265 265 266 276 281 285 286 289 289 289 287
283 256 250 250 248 247 246 245 245 246 243 243 240 241 243 244 243 241 240 239 241 245 248 249 248 247 248 250 255 259 254 261 262 260 264 274 279 280 284 286 284 285 300
298 275 259 257 255 250 247 245 245 245 245 243 241 241 243 242 242 241 239 239 241 245 248 247 248 248 254 252 255 249 254 257 262 256 265 274 276 277 278 284 290 296 303
296 283 275 263 258 253 250 246 244 242 242 242 241 241 240 241 244 243 241 240 242 244 245 245 244 249 252 248 250 252 255 257 253 260 268 269 270 271 278 285 295 303 307
293 291 279 275 266 260 255 248 244 242 242 241 240 238 238 240 244 242 240 240 240 240 241 243 244 243 247 245 248 247 250 254 258 258 257 258 259 263 268 277 285 292 299
288 289 294 287 273 265 257 251 246 243 242 241 239 237 237 242 242 237 236 236 236 238 238 241 240 241 241 241 242 248 253 253 252 253 253 254 259 266 271 272 272 281 296
287 291 294 289 277 266 260 255 249 244 242 241 240 240 240 239 237 234 230 230 232 235 235 234 233 233 235 240 242 244 243 244 246 249 254 259 263 263 257 257 264 271 289
290 295 296 288 278 272 265 260 252 245 243 240 238 237 237 237 236 232 228 228 229 228 228 229 231 235 239 239 237 235 237 238 241 246 248 249 249 249 246 251 261 270 279
297 296 292 287 274 273 269 260 256 247 241 237 236 237 236 233 232 230 229 227 228 228 231 233 233 232 232 233 232 233 234 233 234 237 236 236 238 243 250 253 259 268 295
290 288 285 284 278 270 265 261 251 244 239 236 231 228 228 226 225 229 229 230 233 234 232 231 229 230 229 226 223 221 224 224 225 225 226 232 235 236 246 248 255 266 283
282 279 280 277 275 271 263 256 248 241 235 231 226 224 223 223 222 225 230 232 229 223 223 223 225 224 221 218 216 219 220 218 220 216 218 222 227 235 243 250 246 256 272
289 282 280 277 274 267 257 252 246 241 233 230 226 224 224 222 226 224 224 224 224 222 216 212 215 216 217 217 213 213 215 214 212 211 212 219 224 229 237 249 259 271 280
302 288 277 277 275 269 257 249 245 242 239 236 232 228 227 224 227 227 226 226 225 222 214 210 209 210 211 209 206 210 209 208 206 206 206 212 219 227 238 255 275 299 305
309 297 287 282 278 270 260 250 241 238 237 236 236 238 237 234 234 231 227 226 226 219 210 210 209 209 210 208 207 203 204 204 201 201 200 206 219 231 248 264 276 282 293
315 306 298 292 286 275 261 250 245 239 237 235 237 237 236 239 236 228 228 228 221 214 212 214 215 212 210 210 207 204 200 196 195 198 204 210 223 236 250 259 264 272 273
322 317 313 305 295 281 267 257 250 246 240 234 232 229 229 228 228 227 219 215 209 212 215 213 214 213 211 207 203 201 197 196 199 204 212 221 230 239 249 255 258 262 270
339 334 328 313 303 287 276 267 256 251 245 239 233 228 228 230 228 221 214 214 208 209 211 211 210 210 209 205 202 199 197 199 205 215 223 228 236 238 236 237 238 244 252
353 352 342 328 315 293 274 267 261 252 247 242 237 234 228 216 210 209 209 211 211 215 215 213 209 207 207 204 200 198 199 205 214 220 232 235 231 226 223 224 228 240 255
2 356 353 342 316 289 271 265 261 255 250 247 242 238 231 221 216 211 209 210 211 215 215 211 206 203 203 201 201 203 207 214 222 246 237 228 222 217 215 219 229 242 255
17 10 1 350 332 307 288 272 265 261 256 254 249 236 225 220 217 216 211 212 213 213 208 207 199 199 200 204 206 209 212 231 250 240 231 224 219 216 218 223 232 243 254
30 25 21 16 7 349 333 324 296 275 266 258 246 233 224 218 219 221 221 219 212 205 204 201 198 199 201 205 207 214 243 253 243 234 229 225 221 222 227 231 236 246 257
29 27 26 28 27 24 20 14 2 331 295 265 243 234 228 221 218 213 210 209 208 209 204 198 202 207 209 208 217 237 244 244 237 232 232 229 228 229 232 237 242 247 256
19 20 19 20 23 24 26 29 27 25 20 8 268 238 233 225 218 215 212 210 215 215 205 204 209 212 211 224 231 236 241 239 235 240 236 232 232 234 238 242 246 250 256
10 10 9 8 9 9 10 13 17 18 17 10 360 345 302 250 227 213 215 216 215 214 214 214 212 220 233 232 236 232 230 234 236 235 235 236 238 239 241 244 247 250 255